Stations météo

réclame
Mon MeteoGroup
Aultbea, Grande-Bretagne (3034): Température de l'air & dewpoint: 19.02.2018 05:00:00 - 25.02.2018 05:00:00 (GMT)Aultbea, Grande-Bretagne (3034): Température de l'air -20cm & Température de l'air -100cm: 19.02.2018 05:00:00 - 25.02.2018 05:00:00 (GMT)Aultbea, Grande-Bretagne (3034): Vitesse du vent & gusts: 19.02.2018 05:00:00 - 25.02.2018 05:00:00 (GMT)Aultbea, Grande-Bretagne (3034): Direction du vent: 19.02.2018 05:00:00 - 25.02.2018 05:00:00 (GMT)Aultbea, Grande-Bretagne (3034): reduced air pressure: 19.02.2018 05:00:00 - 25.02.2018 05:00:00 (GMT)Aultbea, Grande-Bretagne (3034): visibility: 19.02.2018 05:00:00 - 25.02.2018 05:00:00 (GMT)Aultbea, Grande-Bretagne (3034): Quantités de précipitations: 19.02.2018 05:00:00 - 25.02.2018 05:00:00 (GMT)
Date & Time tt [°C] td [°C] tt -20cm [°C] tt -100cm [°C] ff [km/h] ff [knt] fx [km/h] fx [knt] dd ppp [hPa] vv [km] rr [mm]
25.02.2018 05:00:00 -2,1 -5,2 - - 5 3 - - E 1028,4 40 0,0
25.02.2018 04:00:00 -1,8 -5,8 - - 2 1 - - E 1027,9 24 0,0
25.02.2018 03:00:00 -0,4 -4,1 - - 5 3 - - ESE 1027,7 28 0,0
25.02.2018 02:00:00 -0,9 -4,5 - - 5 3 - - E 1027,6 30 0,0
25.02.2018 01:00:00 -0,8 -4,4 - - 8 4 - - ESE 1027,6 27 0,0
25.02.2018 00:00:00 0,0 -3,8 - - 5 3 - - ESE 1027,4 30 0,0
24.02.2018 23:00:00 0,3 -3,9 - - 5 3 - - ENE 1027,1 35 0,0
24.02.2018 22:00:00 0,6 -1,8 - - 4 2 - - ENE 1026,7 40 0,0
24.02.2018 21:00:00 1,9 -1,0 - - 5 3 - - ESE 1026,2 30 0,0
24.02.2018 20:00:00 2,8 -1,8 - - 11 6 - - NNE 1025,7 40 0,0
24.02.2018 19:00:00 3,2 -2,2 - - 11 6 - - NNE 1025,6 50 0,0
24.02.2018 18:00:00 2,9 -2,6 - - 8 4 - - NNE 1025,3 40 0,0
24.02.2018 17:00:00 4,9 -3,0 - - 4 2 - - W 1024,8 40 0,0
24.02.2018 16:00:00 6,5 -3,3 - - 8 4 - - S 1024,3 40 0,0
24.02.2018 15:00:00 6,7 -3,6 - - 11 6 - - WSW 1024,1 40 0,0
24.02.2018 14:00:00 6,9 -3,6 - - 9 5 - - SW 1024,0 45 0,0
24.02.2018 13:00:00 6,8 -7,1 - - 4 2 - - SW 1023,3 40 0,0
24.02.2018 12:00:00 6,0 -6,9 - - 5 3 - - ENE 1023,1 35 0,0
24.02.2018 11:00:00 5,0 -5,3 - - 4 2 - - SSW 1022,8 45 0,0
24.02.2018 10:00:00 4,2 -4,8 - - 2 1 - - WSW 1022,4 50 0,0
24.02.2018 09:00:00 1,8 -4,4 3,7 5,0 8 4 - - NE 1021,9 50 0,0
24.02.2018 08:00:00 1,6 -3,9 - - 11 6 - - S 1021,2 45 0,0
24.02.2018 07:00:00 1,6 -3,7 - - 11 6 - - S 1020,0 50 0,0
24.02.2018 06:00:00 1,9 -4,4 - - 13 7 - - SSE 1019,3 50 0,0
24.02.2018 05:00:00 1,4 -4,5 - - 11 6 - - ESE 1018,5 40 0,0
24.02.2018 04:00:00 3,1 -3,2 - - 18 10 - - SSE 1017,9 50 0,0
24.02.2018 03:00:00 3,2 -3,1 - - 15 8 - - SSE 1017,7 45 0,0
24.02.2018 02:00:00 3,3 -3,4 - - 16 9 - - SSE 1017,6 40 0,0
24.02.2018 01:00:00 3,2 -3,2 - - 15 8 - - SE 1017,4 45 0,0
24.02.2018 00:00:00 3,3 -1,9 - - 13 7 - - SSE 1017,3 45 0,0
23.02.2018 23:00:00 4,0 -3,3 - - 18 10 - - SE 1017,2 45 0,0
23.02.2018 22:00:00 3,2 -3,0 - - 13 7 - - S 1016,9 45 0,0
23.02.2018 21:00:00 3,4 -2,4 - - 16 9 - - SSE 1016,7 50 0,0
23.02.2018 20:00:00 3,7 -3,0 - - 18 10 - - SSE 1016,6 45 0,0
23.02.2018 19:00:00 3,7 -2,8 - - 16 9 - - SSE 1016,6 45 0,0
23.02.2018 18:00:00 3,4 -3,7 - - 9 5 - - ESE 1016,6 35 0,0
23.02.2018 17:00:00 6,1 -2,9 - - 11 6 - - S 1016,6 40 0,0
23.02.2018 16:00:00 6,9 -2,4 - - 11 6 - - SSE 1016,6 30 0,0
23.02.2018 15:00:00 7,2 -1,2 - - 13 7 - - S 1017,1 30 0,0
23.02.2018 14:00:00 6,3 -0,7 - - 24 13 - - SSW 1017,4 26 0,0
23.02.2018 13:00:00 6,2 -1,1 - - 22 12 - - S 1017,8 29 0,0
23.02.2018 12:00:00 5,7 -1,1 - - 18 10 - - S 1018,0 23 0,0
23.02.2018 11:00:00 5,5 -1,5 - - 28 15 - - S 1018,0 30 0,0
23.02.2018 10:00:00 5,3 -1,3 - - 26 14 - - S 1018,0 23 0,0
23.02.2018 09:00:00 4,9 -0,8 4,2 5,0 15 8 - - SSE 1018,2 35 0,0
23.02.2018 08:00:00 4,0 -0,5 - - 16 9 - - S 1018,0 35 0,0
23.02.2018 07:00:00 4,5 -0,2 - - 28 15 - - S 1017,9 30 0,0
23.02.2018 06:00:00 4,1 0,4 - - 22 12 - - S 1017,7 30 0,0
23.02.2018 05:00:00 5,0 0,3 - - 24 13 - - S 1017,7 35 0,0
23.02.2018 04:00:00 5,4 0,3 - - 26 14 - - S 1017,8 45 0,0
23.02.2018 03:00:00 5,7 0,4 - - 28 15 - - S 1018,1 28 0,0
23.02.2018 02:00:00 5,8 0,4 - - 28 15 46 25 S 1018,0 30 0,0
23.02.2018 01:00:00 5,8 0,8 - - 29 16 - - S 1018,2 35 0,0
23.02.2018 00:00:00 6,0 0,6 - - 26 14 - - S 1018,1 35 0,0
22.02.2018 23:00:00 6,2 1,0 - - 29 16 46 25 S 1018,0 30 0,0
22.02.2018 22:00:00 6,4 0,9 - - 31 17 48 26 S 1017,9 29 0,0
22.02.2018 21:00:00 6,5 1,0 - - 35 19 50 27 S 1017,7 35 0,0
22.02.2018 20:00:00 6,7 0,6 - - 34 18 48 26 S 1017,9 40 0,0
22.02.2018 19:00:00 6,5 0,6 - - 34 18 50 27 S 1018,0 35 0,0
22.02.2018 18:00:00 6,9 -0,2 - - 34 18 50 27 S 1018,0 45 0,0
22.02.2018 17:00:00 6,8 0,3 - - 29 16 54 29 S 1017,8 45 0,0
22.02.2018 16:00:00 6,9 0,3 - - 35 19 57 31 S 1018,0 45 0,0
22.02.2018 15:00:00 6,7 0,9 - - 46 25 63 34 S 1018,4 35 0,0
22.02.2018 14:00:00 7,0 0,1 - - 41 22 65 35 S 1018,6 45 0,0
22.02.2018 13:00:00 7,1 0,4 - - 37 20 61 33 S 1019,1 23 0,0
22.02.2018 12:00:00 6,7 0,6 - - 37 20 63 34 S 1019,5 40 0,0
22.02.2018 11:00:00 6,6 -0,2 - - 34 18 46 25 S 1019,8 45 0,0
22.02.2018 10:00:00 6,2 0,2 - - 24 13 - - S 1020,0 45 0,0
22.02.2018 09:00:00 5,8 0,2 4,0 5,0 24 13 - - S 1020,4 35 0,0
22.02.2018 08:00:00 5,5 -0,4 - - 21 11 - - S 1020,6 35 0,0
22.02.2018 07:00:00 5,3 0,1 - - 24 13 - - S 1020,9 30 0,0
22.02.2018 06:00:00 5,0 0,2 - - 16 9 - - S 1021,4 30 0,0
22.02.2018 05:00:00 4,7 0,3 - - 15 8 - - SSE 1021,4 30 0,0
22.02.2018 04:00:00 4,6 0,1 - - 13 7 - - S 1022,1 28 0,0
22.02.2018 03:00:00 3,8 0,0 - - 11 6 - - SSE 1022,6 35 0,0
22.02.2018 02:00:00 2,8 -0,7 - - 8 4 - - ESE 1023,2 28 0,0
22.02.2018 01:00:00 4,0 0,2 - - 11 6 - - SSE 1023,7 35 0,0
22.02.2018 00:00:00 3,6 0,3 - - 13 7 - - SSE 1024,0 30 0,0
21.02.2018 23:00:00 3,4 0,0 - - 13 7 - - SE 1024,3 30 0,0
21.02.2018 22:00:00 3,4 0,1 - - 15 8 - - SSE 1024,7 25 0,0
21.02.2018 21:00:00 3,0 0,6 - - 13 7 - - SSE 1025,1 26 0,0
21.02.2018 20:00:00 2,5 -0,5 - - 9 5 - - ESE 1025,6 26 0,0
21.02.2018 19:00:00 2,0 -1,2 - - 9 5 - - E 1025,7 30 0,0
21.02.2018 18:00:00 4,4 0,1 - - 9 5 - - S 1025,8 26 0,0
21.02.2018 17:00:00 6,3 0,6 - - 11 6 - - SSW 1026,0 29 0,0
21.02.2018 16:00:00 7,2 1,3 - - 16 9 - - SSW 1026,1 30 0,0
21.02.2018 15:00:00 7,9 0,2 - - 15 8 - - S 1026,5 30 0,0
21.02.2018 14:00:00 8,1 0,5 - - 16 9 - - S 1027,2 30 0,0
21.02.2018 13:00:00 7,7 1,5 - - 11 6 - - S 1027,7 19 0,0
21.02.2018 12:00:00 6,5 2,2 - - 9 5 - - SE 1028,3 20 0,0
21.02.2018 11:00:00 5,5 1,9 - - 9 5 - - SSE 1028,8 19 0,0
21.02.2018 10:00:00 4,1 1,2 - - 11 6 - - SE 1029,2 16 0,0
21.02.2018 09:00:00 2,6 0,7 4,4 5,0 11 6 - - SSE 1029,6 16 0,0
21.02.2018 08:00:00 1,6 0,3 - - 9 5 - - E 1029,6 16 0,0
21.02.2018 07:00:00 1,9 0,7 - - 9 5 - - ESE 1029,6 14 0,0
21.02.2018 06:00:00 1,6 0,4 - - 9 5 - - E 1029,7 15 0,0
21.02.2018 05:00:00 1,6 0,6 - - 5 3 - - E 1030,0 14 0,0
21.02.2018 04:00:00 2,0 1,0 - - 11 6 - - SE 1030,1 13 0,2
21.02.2018 03:00:00 2,1 1,2 - - 8 4 - - ESE 1030,2 13 0,0
21.02.2018 02:00:00 2,2 1,2 - - 5 3 - - ESE 1030,6 14 0,0
21.02.2018 01:00:00 2,5 1,3 - - 4 2 - - SE 1030,7 12 0,0
21.02.2018 00:00:00 1,9 0,9 - - 4 2 - - ESE 1030,9 14 0,0
20.02.2018 23:00:00 1,7 0,7 - - 4 2 - - E 1030,8 13 0,0
20.02.2018 22:00:00 1,9 0,8 - - 5 3 - - E 1030,4 13 0,0
20.02.2018 21:00:00 2,3 0,8 - - 4 2 - - ENE 1030,2 10 0,0
20.02.2018 20:00:00 3,2 1,0 - - 2 1 - - NW 1029,8 9 0,0
20.02.2018 19:00:00 4,7 2,2 - - 5 3 - - E 1029,6 13 0,0
20.02.2018 18:00:00 5,4 2,9 - - 2 1 - - W 1029,0 14 0,0
20.02.2018 17:00:00 6,4 2,9 - - 8 4 - - WNW 1028,6 16 0,0
20.02.2018 16:00:00 7,0 2,5 - - 8 4 - - W 1028,2 17 0,0
20.02.2018 15:00:00 7,2 1,4 - - 11 6 - - WNW 1028,0 17 0,0
20.02.2018 14:00:00 7,7 3,8 - - 13 7 - - W 1027,5 12 0,0
20.02.2018 13:00:00 7,5 3,8 - - 15 8 - - W 1027,2 12 0,0
20.02.2018 12:00:00 7,5 3,8 - - 16 9 - - W 1026,7 15 0,0
20.02.2018 11:00:00 7,7 3,9 - - 15 8 - - W 1025,7 14 0,0
20.02.2018 10:00:00 7,0 4,1 - - 15 8 - - W 1025,1 13 0,0
20.02.2018 09:00:00 5,8 3,8 5,0 4,9 9 5 - - WSW 1024,7 14 0,0
20.02.2018 08:00:00 6,0 3,6 - - 11 6 - - W 1023,8 15 0,0
20.02.2018 07:00:00 6,2 3,8 - - 13 7 - - W 1023,1 18 0,0
20.02.2018 06:00:00 6,2 4,1 - - 9 5 - - W 1022,2 15 0,0
20.02.2018 05:00:00 6,1 4,2 - - 11 6 - - W 1021,2 18 0,0
20.02.2018 04:00:00 6,3 4,6 - - 15 8 - - W 1020,6 17 0,0
20.02.2018 03:00:00 6,1 4,3 - - 16 9 - - W 1019,8 21 0,0
20.02.2018 02:00:00 6,5 5,1 - - 16 9 - - W 1019,2 16 0,0
20.02.2018 01:00:00 6,5 5,0 - - 13 7 - - WSW 1018,7 19 0,0
20.02.2018 00:00:00 5,6 4,7 - - 13 7 - - SSW 1018,4 18 0,0
19.02.2018 23:00:00 5,9 4,9 - - 13 7 - - SSW 1018,1 21 0,2
19.02.2018 22:00:00 6,3 5,0 - - 21 11 - - W 1017,9 9 0,4
19.02.2018 21:00:00 6,4 5,6 - - 15 8 - - W 1017,5 8 1,6
19.02.2018 20:00:00 7,1 6,7 - - 18 10 - - W 1016,9 4,1 1,8
19.02.2018 19:00:00 7,6 7,1 - - 13 7 - - W 1016,1 2,6 0,4
19.02.2018 18:00:00 8,4 7,9 - - 15 8 - - SSW 1015,2 3,6 0,4
19.02.2018 17:00:00 8,7 7,8 - - 16 9 - - SSW 1015,1 6 0,0
19.02.2018 16:00:00 9,1 7,7 - - 22 12 - - SSW 1015,0 11 0,0
19.02.2018 15:00:00 9,7 8,0 - - 18 10 - - SSW 1015,3 20 0,0
19.02.2018 14:00:00 10,3 8,8 - - 24 13 - - S 1015,1 19 0,0
19.02.2018 13:00:00 9,7 8,9 - - 18 10 - - S 1015,3 12 0,0
19.02.2018 12:00:00 9,3 8,9 - - 16 9 - - SSW 1015,4 8 0,0
19.02.2018 11:00:00 8,8 8,5 - - 16 9 - - SSW 1014,9 7 0,0
19.02.2018 10:00:00 8,9 8,6 - - 9 5 - - S 1014,7 5 0,0
19.02.2018 09:00:00 8,9 8,6 4,5 4,7 18 10 - - SSW 1014,3 5 0,0
19.02.2018 08:00:00 8,6 8,4 - - 13 7 - - SSW 1013,8 2,2 0,4
19.02.2018 07:00:00 8,4 8,1 - - 5 3 - - S 1013,1 4,1 0,4
19.02.2018 06:00:00 8,4 8,0 - - 9 5 - - S 1012,6 3,3 0,4
19.02.2018 05:00:00 8,5 8,2 - - 11 6 - - S 1012,4 5 0,2

tt = Température de l'air
td = dewpoint
tt -20cm = Température de l'air -20cm
tt -100cm = Température de l'air -100cm
ff = Vitesse du vent
fx = gusts
dd = Direction du vent
ppp = reduced air pressure
vv = visibility
rr = Quantités de précipitations

stations d'obs. à proximité